Location: Newark
(5.8900°S, 42.6378°W)
Time: 21:38:41
(UTC+00:00)

Vanguard 1 Rocket - Pass Details

Date: 26 October 2019
Orbit: 651 x 4225 km, 34.3° (Epoch: 14 November)

Event Time Altitude Azimuth Distance (km) Brightness Sun altitude
Exits shadow 08:08:27 - 246° (WSW) 3,011 9.6 -5.1°
Rises 08:08:33 0° 247° (WSW) 2,973 9.6 -5.1°
Reaches altitude 10° 08:10:40 10° 253° (WSW) 2,130 8.8 -4.5°
Maximum altitude 08:15:08 46° 327° (NNW) 1,099 7.6 -3.5°
Drops below altitude 10° 08:21:50 10° 40° (NE) 3,171 10.6 -1.8°
Sets 08:25:42 0° 45° (NE) 4,642 11.5 -0.9°
